period_start,C,m1,H,J0,J1,J2,J3,J4,J5,JA,JB,JC,JD,JJ,JK,JN,#
2013-11-21 00:00:02,0.22,4.40,0.00,25.12,28.00,30.67,5.77,31.58,1004.14,2039.03,2079.08,2291.44,2463.04,350.56,318.46,29.02,0000 0000 0000 0000 000000
2013-11-21 00:01:03,0.19,4.40,0.00,25.06,28.00,30.68,5.86,31.92,1004.09,2039.03,2078.95,2291.16,2462.93,349.63,317.27,29.02,0000 0000 0000 0000 000000
2013-11-21 00:02:03,0.18,4.40,0.00,25.05,28.00,30.67,5.88,31.67,1004.06,2039.01,2078.53,2291.05,2462.47,350.78,318.26,29.03,0000 0000 0000 0000 000000
2013-11-21 00:03:03,0.22,4.40,0.00,25.16,28.00,30.65,5.86,32.08,1004.09,2039.02,2078.20,2290.98,2462.17,351.11,318.65,29.03,0000 0000 0000 0000 000000
2013-11-21 00:04:03,0.20,4.40,0.00,25.12,28.00,30.56,5.88,32.04,1004.04,2039.02,2078.05,2290.68,2462.06,350.27,317.93,29.04,0000 0000 0000 0000 000000
2013-11-21 00:05:04,0.18,4.41,0.00,25.02,28.00,30.58,5.78,32.08,1004.07,2039.02,2077.82,2290.27,2462.00,349.63,317.46,29.04,0000 0000 0000 0000 000000
2013-11-21 00:06:04,0.25,4.41,0.00,25.05,28.00,30.60,5.97,32.00,1004.04,2039.05,2077.35,2290.09,2461.66,350.82,318.51,29.05,0000 0000 0000 0000 000000
2013-11-21 00:07:04,0.29,4.41,0.00,25.15,28.00,30.57,5.68,31.63,1004.03,2039.05,2077.13,2290.03,2461.26,348.92,316.67,29.06,0000 0000 0000 0000 000000
2013-11-21 00:08:05,0.13,4.41,0.00,25.09,28.00,30.61,5.77,31.83,1004.02,2039.02,2077.05,2290.00,2461.10,349.65,317.38,29.06,0000 0000 0000 0000 000000
2013-11-21 00:09:05,0.05,4.41,0.00,24.91,28.00,30.66,5.97,32.08,1004.10,2039.00,2076.82,2289.68,2461.03,350.77,318.80,29.07,0000 0000 0000 0000 000000
2013-11-21 00:10:05,0.22,4.41,0.00,24.90,28.00,30.67,5.92,32.13,1004.19,2039.02,2076.36,2289.28,2460.87,350.36,318.29,29.07,0000 0000 0000 0000 000000
2013-11-21 00:11:05,0.30,4.41,0.00,24.82,28.00,30.69,5.96,32.25,1004.26,2039.03,2076.13,2289.10,2460.45,350.77,318.78,29.08,0000 0000 0000 0000 000000
2013-11-21 00:12:06,0.21,4.41,0.00,24.91,28.00,30.68,5.94,32.33,1004.17,2039.02,2076.04,2289.03,2460.16,350.34,318.27,29.09,0000 0000 0000 0000 000000
2013-11-21 00:13:06,0.12,4.42,0.00,24.97,28.00,30.70,5.90,31.79,1004.07,2039.05,2075.72,2288.99,2460.05,349.85,317.97,29.09,0000 0000 0000 0000 000000
2013-11-21 00:14:06,0.18,4.42,0.00,24.91,28.00,30.71,5.84,31.71,1004.02,2039.04,2075.28,2288.66,2460.00,348.89,317.01,29.10,0000 0000 0000 0000 000000
2013-11-21 00:15:06,0.25,4.42,0.00,24.87,28.00,30.59,5.87,32.00,1003.99,2039.03,2075.10,2288.27,2459.68,349.24,317.10,29.10,0000 0000 0000 0000 000000
2013-11-21 00:16:07,0.25,4.42,0.00,24.82,28.00,30.66,5.83,32.21,1003.97,2039.03,2074.99,2288.09,2459.27,349.28,317.68,29.11,0000 0000 0000 0000 000000
2013-11-21 00:17:07,0.17,4.42,0.00,24.83,28.00,30.65,5.85,32.46,1003.95,2039.02,2074.59,2288.03,2459.09,350.90,318.79,29.12,0000 0000 0000 0000 000000
2013-11-21 00:18:07,0.18,4.42,0.00,24.79,28.00,30.63,5.75,31.92,1003.94,2039.02,2074.23,2287.97,2459.02,349.68,317.42,29.12,0000 0000 0000 0000 000000
2013-11-21 00:19:07,0.13,4.42,0.00,24.79,28.00,30.66,5.86,32.21,1003.94,2039.02,2074.08,2287.62,2458.77,349.19,317.27,29.13,0000 0000 0000 0000 000000
2013-11-21 00:20:08,0.24,4.42,0.00,24.79,28.00,30.65,5.92,32.46,1003.94,2039.02,2073.96,2287.26,2458.36,350.52,318.05,29.13,0000 0000 0000 0000 000000
2013-11-21 00:21:08,0.26,4.43,0.00,24.75,27.99,30.66,5.96,32.17,1003.94,2039.01,2073.49,2287.11,2458.13,351.13,318.43,29.14,0000 0000 0000 0000 000000
2013-11-21 00:22:08,0.21,4.43,0.00,24.83,28.00,30.64,5.91,32.25,1003.93,2039.00,2073.17,2287.01,2458.04,350.42,318.40,29.14,0000 0000 0000 0000 000000
2013-11-21 00:23:09,0.15,4.43,0.00,24.99,28.00,30.59,5.97,32.00,1003.92,2039.02,2073.06,2286.90,2457.95,349.73,317.30,29.15,0000 0000 0000 0000 000000
2013-11-21 00:24:09,0.17,4.43,0.00,25.14,27.99,30.64,5.82,32.00,1003.92,2039.04,2072.85,2286.51,2457.52,350.22,317.87,29.16,0000 0000 0000 0000 000000
2013-11-21 00:25:09,0.28,4.43,0.00,25.10,28.00,30.62,5.88,31.88,1003.92,2039.03,2072.37,2286.19,2457.21,350.83,318.42,29.16,0000 0000 0000 0000 000000
2013-11-21 00:26:10,0.29,4.43,0.00,25.05,27.99,30.63,5.90,32.25,1003.92,2039.05,2072.13,2286.07,2457.07,349.46,317.23,29.17,0000 0000 0000 0000 000000
2013-11-21 00:27:10,0.14,4.43,0.00,25.01,28.00,30.65,5.98,32.17,1003.92,2039.03,2072.05,2286.02,2457.02,351.04,318.70,29.17,0000 0000 0000 0000 000000
2013-11-21 00:28:10,0.03,4.43,0.00,24.94,28.00,30.65,5.92,31.67,1003.92,2039.06,2071.80,2285.89,2456.78,350.71,318.48,29.18,0000 0000 0000 0000 000000
2013-11-21 00:29:10,0.23,4.43,0.00,24.95,28.00,30.62,5.93,32.04,1003.92,2039.07,2071.35,2285.53,2456.36,350.04,317.86,29.19,0000 0000 0000 0000 000000
2013-11-21 00:30:11,0.34,4.44,0.00,24.95,28.00,30.62,5.91,32.29,1003.92,2039.05,2071.13,2285.21,2456.14,349.75,317.73,29.19,0000 0000 0000 0000 000000
2013-11-21 00:31:11,0.21,4.44,0.00,24.93,27.99,30.67,5.97,32.46,1003.92,2039.06,2071.01,2285.08,2456.05,350.07,317.88,29.20,0000 0000 0000 0000 000000
2013-11-21 00:32:11,0.11,4.44,0.00,24.99,27.99,30.60,5.82,32.25,1003.92,2039.04,2070.61,2285.00,2455.93,349.76,317.26,29.20,0000 0000 0000 0000 000000
2013-11-21 00:33:12,0.16,4.44,0.00,25.07,27.99,30.65,6.02,32.04,1003.93,2039.03,2070.24,2284.75,2455.49,351.05,318.94,29.21,0000 0000 0000 0000 000000
2013-11-21 00:34:12,0.27,4.44,0.00,25.03,27.99,30.69,5.99,32.13,1003.93,2039.02,2070.08,2284.36,2455.19,350.58,318.05,29.21,0000 0000 0000 0000 000000
2013-11-21 00:35:12,0.25,4.44,0.00,25.07,27.99,30.65,5.98,32.46,1003.93,2039.02,2069.94,2284.14,2455.06,351.45,319.02,29.22,0000 0000 0000 0000 000000
2013-11-21 00:36:12,0.15,4.44,0.00,25.05,27.99,30.61,5.92,32.21,1003.93,2039.02,2069.52,2284.04,2454.96,349.48,317.25,29.23,0000 0000 0000 0000 000000
2013-11-21 00:37:13,0.17,4.44,0.00,24.98,27.99,30.60,5.78,31.83,1003.92,2039.00,2069.19,2284.00,2454.59,349.79,317.60,29.23,0000 0000 0000 0000 000000
2013-11-21 00:38:13,0.17,4.44,0.00,24.93,27.99,30.61,5.67,31.50,1003.95,2039.02,2069.05,2283.80,2454.26,348.46,316.85,29.24,0000 0000 0000 0000 000000
2013-11-21 00:39:13,0.23,4.45,0.00,24.91,27.99,30.63,5.83,32.04,1003.93,2039.02,2068.85,2283.35,2454.09,349.28,317.22,29.24,0000 0000 0000 0000 000000
2013-11-21 00:40:14,0.25,4.45,0.00,24.81,27.99,30.67,5.86,32.13,1003.94,2039.02,2068.40,2283.12,2454.02,350.17,318.14,29.25,0000 0000 0000 0000 000000
2013-11-21 00:41:14,0.22,4.45,0.00,24.70,27.99,30.68,5.88,31.88,1003.94,2039.02,2068.15,2283.04,2453.82,349.87,317.98,29.26,0000 0000 0000 0000 000000
2013-11-21 00:42:14,0.15,4.45,0.00,24.69,27.99,30.63,5.82,31.88,1003.95,2039.02,2067.97,2282.95,2453.39,349.92,318.04,29.26,0000 0000 0000 0000 000000
2013-11-21 00:43:14,0.19,4.45,0.00,24.69,27.99,30.64,6.02,32.50,1003.96,2039.03,2067.49,2282.56,2453.14,350.56,318.62,29.27,0000 0000 0000 0000 000000
2013-11-21 00:44:14,0.31,4.45,0.00,24.59,27.98,30.64,5.68,32.08,1003.93,2039.02,2067.19,2282.25,2453.05,349.22,317.50,29.27,0000 0000 0000 0000 000000
2013-11-21 00:45:15,0.22,4.45,0.00,24.64,27.98,30.60,5.76,32.04,1003.93,2039.02,2067.06,2282.09,2452.87,348.20,316.54,29.28,0000 0000 0000 0000 000000
2013-11-21 00:46:15,0.14,4.46,0.00,24.81,27.98,30.63,5.85,32.04,1003.93,2039.04,2066.94,2282.02,2452.47,349.04,317.11,29.29,0000 0000 0000 0000 000000
2013-11-21 00:47:15,0.17,4.46,0.00,24.90,27.98,30.61,5.90,31.92,1003.93,2039.05,2066.57,2281.96,2452.20,350.55,318.38,29.29,0000 0000 0000 0000 000000
2013-11-21 00:48:16,0.21,4.46,0.00,24.98,27.98,30.66,5.93,31.83,1003.94,2039.05,2066.23,2281.60,2452.07,350.00,317.80,29.30,0000 0000 0000 0000 000000
2013-11-21 00:49:16,0.25,4.46,0.00,24.89,27.98,30.62,5.80,32.42,1003.95,2039.07,2066.07,2281.27,2452.00,348.68,317.10,29.30,0000 0000 0000 0000 000000
2013-11-21 00:50:16,0.19,4.46,0.00,24.83,27.98,30.66,5.86,32.13,1003.93,2039.07,2065.96,2281.09,2451.78,349.69,317.60,29.31,0000 0000 0000 0000 000000
2013-11-21 00:51:16,0.19,4.46,0.00,24.92,27.98,30.65,5.86,31.92,1003.92,2039.09,2065.53,2281.03,2451.36,349.72,318.01,29.31,0000 0000 0000 0000 000000
2013-11-21 00:52:17,0.23,4.46,0.00,24.89,27.98,30.67,5.82,31.88,1003.94,2039.05,2065.21,2280.98,2451.13,349.46,317.41,29.32,0000 0000 0000 0000 000000
2013-11-21 00:53:17,0.11,4.46,0.00,24.83,27.98,30.67,5.87,31.75,1003.94,2039.06,2065.07,2280.67,2451.05,350.32,318.18,29.33,0000 0000 0000 0000 000000
2013-11-21 00:54:17,0.19,4.46,0.00,24.89,27.98,30.65,5.96,32.33,1003.93,2039.05,2064.98,2280.26,2450.97,351.23,319.54,29.33,0000 0000 0000 0000 000000
2013-11-21 00:55:17,0.17,4.47,0.00,24.87,27.99,30.69,5.91,32.08,1003.92,2039.07,2064.60,2280.09,2450.67,350.68,318.71,29.34,0000 0000 0000 0000 000000
2013-11-21 00:56:18,0.29,4.47,0.00,24.84,27.99,30.72,5.82,32.38,1003.93,2039.06,2064.23,2280.03,2450.28,349.78,317.88,29.34,0000 0000 0000 0000 000000
2013-11-21 00:57:18,0.17,4.47,0.00,24.82,27.99,30.67,5.74,32.04,1003.93,2039.03,2064.07,2279.98,2450.09,350.16,318.06,29.35,0000 0000 0000 0000 000000
2013-11-21 00:58:18,0.09,4.47,0.00,24.78,27.98,30.62,5.94,31.79,1003.92,2039.02,2063.91,2279.72,2450.02,349.28,317.88,29.36,0000 0000 0000 0000 000000
2013-11-21 00:59:18,0.17,4.47,0.00,24.81,27.98,30.64,5.95,31.71,1003.92,2039.03,2063.45,2279.31,2449.82,350.34,318.29,29.36,0000 0000 0000 0000 000000
2013-11-21 01:00:19,0.32,4.47,0.00,24.79,27.98,30.63,5.88,32.33,1003.92,2039.04,2063.17,2279.12,2449.35,349.39,317.44,29.37,0000 0000 0000 0000 000000
2013-11-21 01:01:19,0.25,4.47,0.00,24.73,27.98,30.72,5.91,31.75,1003.92,2039.04,2063.04,2279.03,2449.12,350.44,318.46,29.37,0000 0000 0000 0000 000000
2013-11-21 01:02:19,0.10,4.47,0.00,24.70,27.99,30.67,6.05,32.21,1003.92,2039.02,2062.73,2278.91,2449.04,350.44,318.65,29.38,0000 0000 0000 0000 000000
2013-11-21 01:03:20,0.18,4.47,0.00,24.77,27.99,30.70,5.94,32.17,1003.92,2039.03,2062.28,2278.45,2448.83,349.44,317.50,29.38,0000 0000 0000 0000 000000
2013-11-21 01:04:20,0.35,4.48,0.00,24.74,27.99,30.73,6.07,32.29,1003.92,2039.03,2062.10,2278.17,2448.38,351.01,318.97,29.39,0000 0000 0000 0000 000000
2013-11-21 01:05:20,0.24,4.48,0.00,24.76,27.99,30.67,5.97,32.17,1003.92,2039.08,2062.00,2278.05,2448.15,350.52,318.50,29.40,0000 0000 0000 0000 000000
2013-11-21 01:06:20,0.16,4.48,0.00,24.70,27.99,30.71,5.86,31.79,1003.92,2039.09,2061.59,2278.02,2448.05,350.70,318.74,29.40,0000 0000 0000 0000 000000
2013-11-21 01:07:21,0.17,4.48,0.00,24.71,27.99,30.66,5.89,32.21,1003.92,2039.07,2061.23,2277.91,2447.99,350.44,318.48,29.41,0000 0000 0000 0000 000000
2013-11-21 01:08:21,0.16,4.48,0.00,24.65,27.99,30.65,5.82,32.00,1003.92,2039.04,2061.08,2277.44,2447.68,349.58,317.72,29.41,0000 0000 0000 0000 000000
2013-11-21 01:09:21,0.27,4.48,0.00,24.53,27.99,30.68,5.84,32.46,1003.92,2039.04,2060.95,2277.16,2447.27,350.26,318.54,29.42,0000 0000 0000 0000 000000
2013-11-21 01:10:21,0.21,4.48,0.00,24.55,27.99,30.70,5.98,31.88,1003.92,2039.02,2060.51,2277.05,2447.10,350.48,318.50,29.43,0000 0000 0000 0000 000000
2013-11-21 01:11:22,0.19,4.49,0.00,24.58,27.99,30.69,5.87,31.96,1003.93,2039.02,2060.18,2276.95,2446.99,349.51,317.79,29.43,0000 0000 0000 0000 000000
2013-11-21 01:12:22,0.17,4.49,0.00,24.63,27.99,30.68,5.87,32.00,1003.93,2039.01,2060.05,2276.55,2446.70,349.29,317.78,29.44,0000 0000 0000 0000 000000
2013-11-21 01:13:22,0.24,4.49,0.00,24.61,27.99,30.66,5.98,32.00,1003.92,2039.00,2059.74,2276.21,2446.30,350.17,318.52,29.44,0000 0000 0000 0000 000000
2013-11-21 01:14:22,0.28,4.49,0.00,24.56,27.99,30.71,5.90,31.88,1003.92,2039.00,2059.31,2276.07,2446.11,349.27,317.67,29.45,0000 0000 0000 0000 000000
2013-11-21 01:15:23,0.21,4.49,0.00,24.62,27.99,30.66,5.87,32.17,1003.92,2039.02,2059.11,2276.01,2446.03,348.33,316.67,29.46,0000 0000 0000 0000 000000
2013-11-21 01:16:23,0.12,4.49,0.00,24.70,27.99,30.70,5.82,32.13,1003.92,2039.01,2059.04,2275.90,2445.92,349.16,317.42,29.46,0000 0000 0000 0000 000000
2013-11-21 01:17:23,0.08,4.49,0.00,24.73,27.99,30.66,5.92,31.96,1003.92,2039.00,2058.83,2275.59,2445.55,350.26,318.31,29.47,0000 0000 0000 0000 000000
2013-11-21 01:18:23,0.26,4.49,0.00,24.81,27.99,30.68,5.86,32.17,1003.92,2039.01,2058.37,2275.24,2445.21,348.93,317.01,29.47,0000 0000 0000 0000 000000
2013-11-21 01:19:24,0.33,4.50,0.00,24.85,27.99,30.68,5.81,31.83,1003.92,2039.04,2058.13,2275.09,2445.08,349.34,317.34,29.48,0000 0000 0000 0000 000000
2013-11-21 01:20:24,0.19,4.50,0.00,24.80,27.99,30.65,5.75,32.04,1003.92,2039.04,2058.00,2275.03,2445.01,349.31,318.14,29.48,0000 0000 0000 0000 000000
2013-11-21 01:21:24,0.10,4.50,0.00,24.71,27.99,30.65,5.87,32.29,1003.92,2039.04,2057.75,2274.98,2444.91,350.25,318.31,29.49,0000 0000 0000 0000 000000
2013-11-21 01:22:25,0.08,4.50,0.00,24.67,27.99,30.69,5.87,31.75,1003.92,2039.02,2057.33,2274.82,2444.46,350.83,318.88,29.50,0000 0000 0000 0000 000000
2013-11-21 01:23:25,0.30,4.50,0.00,24.60,27.99,30.69,5.94,32.42,1003.92,2039.02,2057.11,2274.42,2444.18,349.63,318.01,29.50,0000 0000 0000 0000 000000
2013-11-21 01:24:25,0.28,4.50,0.00,24.58,27.99,30.68,5.83,31.83,1003.92,2039.02,2057.00,2274.16,2444.06,350.11,318.32,29.51,0000 0000 0000 0000 000000
2013-11-21 01:25:25,0.12,4.50,0.00,24.55,27.99,30.68,5.90,31.92,1003.92,2039.00,2056.59,2274.04,2443.91,349.61,317.91,29.51,0000 0000 0000 0000 000000
2013-11-21 01:26:26,0.22,4.50,0.00,24.58,27.99,30.69,5.83,32.13,1003.92,2039.03,2056.22,2273.94,2443.57,349.69,317.83,29.52,0000 0000 0000 0000 000000
2013-11-21 01:27:26,0.24,4.50,0.00,24.59,27.99,30.71,5.90,32.17,1003.92,2039.03,2056.07,2273.55,2443.22,350.80,318.88,29.53,0000 0000 0000 0000 000000
2013-11-21 01:28:26,0.27,4.51,0.00,24.54,27.99,30.68,5.88,32.17,1003.92,2039.03,2055.98,2273.21,2443.08,349.14,317.56,29.53,0000 0000 0000 0000 000000
2013-11-21 01:29:27,0.15,4.51,0.00,24.51,27.99,30.69,5.99,32.17,1003.92,2039.03,2055.64,2273.07,2443.03,350.65,318.60,29.54,0000 0000 0000 0000 000000
2013-11-21 01:30:27,0.18,4.51,0.00,24.45,27.99,30.72,5.99,32.25,1003.92,2039.02,2055.24,2273.03,2442.92,350.82,319.20,29.54,0000 0000 0000 0000 000000
2013-11-21 01:31:27,0.14,4.51,0.00,24.44,27.99,30.69,6.02,31.96,1003.92,2039.04,2055.08,2272.98,2442.45,350.40,318.74,29.55,0000 0000 0000 0000 000000
2013-11-21 01:32:27,0.18,4.51,0.00,24.43,27.98,30.68,6.02,32.08,1003.92,2039.02,2054.96,2272.65,2442.17,350.53,318.86,29.55,0000 0000 0000 0000 000000
2013-11-21 01:33:28,0.20,4.51,0.00,24.54,27.99,30.67,5.87,32.00,1003.92,2039.02,2054.49,2272.28,2442.06,349.84,318.13,29.56,0000 0000 0000 0000 000000
2013-11-21 01:34:28,0.33,4.51,0.00,24.59,27.99,30.68,5.91,32.17,1003.92,2039.04,2054.18,2272.10,2441.97,350.02,318.23,29.57,0000 0000 0000 0000 000000
2013-11-21 01:35:28,0.17,4.51,0.00,24.63,27.99,30.70,5.90,31.83,1003.92,2039.02,2054.05,2272.03,2441.67,350.08,317.65,29.57,0000 0000 0000 0000 000000
2013-11-21 01:36:28,0.10,4.51,0.00,24.67,27.99,30.73,5.84,32.17,1003.92,2039.01,2053.87,2271.99,2441.30,349.94,318.08,29.58,0000 0000 0000 0000 000000
2013-11-21 01:37:28,0.13,4.52,0.00,24.56,27.99,30.73,6.01,32.21,1003.92,2039.00,2053.40,2271.64,2441.11,351.25,319.38,29.58,0000 0000 0000 0000 000000
2013-11-21 01:38:29,0.34,4.52,0.00,24.53,27.99,30.73,5.98,32.17,1003.91,2039.00,2053.14,2271.27,2441.03,349.61,317.78,29.59,0000 0000 0000 0000 000000
2013-11-21 01:39:29,0.20,4.52,0.00,24.54,27.98,30.69,5.92,32.25,1003.85,2039.01,2053.04,2271.10,2440.84,350.71,319.18,29.60,0000 0000 0000 0000 000000
2013-11-21 01:40:29,0.11,4.52,0.00,24.60,27.98,30.65,5.83,32.25,1003.77,2039.03,2052.83,2271.03,2440.41,348.82,317.09,29.60,0000 0000 0000 0000 000000
2013-11-21 01:41:29,0.22,4.52,0.00,24.65,27.98,30.65,5.96,32.13,1003.71,2039.02,2052.35,2270.93,2440.15,350.47,318.51,29.61,0000 0000 0000 0000 000000
2013-11-21 01:42:29,0.22,4.52,0.00,24.74,27.98,30.67,5.92,31.96,1003.61,2039.02,2052.13,2270.60,2440.05,349.77,317.75,29.61,0000 0000 0000 0000 000000
2013-11-21 01:43:30,0.23,4.52,0.00,24.69,27.98,30.65,5.94,32.71,1003.55,2039.03,2052.03,2270.24,2439.98,350.27,318.23,29.62,0000 0000 0000 0000 000000
2013-11-21 01:44:30,0.19,4.52,0.00,24.61,27.98,30.65,5.83,31.83,1003.51,2039.03,2051.77,2270.09,2439.67,349.65,317.74,29.62,0000 0000 0000 0000 000000
2013-11-21 01:45:30,0.20,4.53,0.00,24.64,27.98,30.70,5.85,31.96,1003.56,2039.01,2051.34,2270.03,2439.28,350.27,318.29,29.63,0000 0000 0000 0000 000000
2013-11-21 01:46:30,0.21,4.53,0.00,24.61,27.98,30.66,5.84,32.29,1003.57,2039.00,2051.12,2269.85,2439.10,349.37,317.50,29.64,0000 0000 0000 0000 000000
2013-11-21 01:47:30,0.14,4.53,0.00,24.54,27.98,30.67,6.00,31.96,1003.59,2039.01,2051.00,2269.44,2439.03,350.43,318.56,29.64,0000 0000 0000 0000 000000
2013-11-21 01:48:30,0.24,4.53,0.00,24.70,27.98,30.72,5.79,32.08,1003.69,2039.01,2050.68,2269.17,2438.81,349.32,317.40,29.65,0000 0000 0000 0000 000000
2013-11-21 01:49:31,0.24,4.53,0.00,24.65,27.98,30.71,5.88,32.33,1003.69,2039.01,2050.26,2269.06,2438.36,349.03,317.18,29.65,0000 0000 0000 0000 000000
2013-11-21 01:50:31,0.24,4.53,0.00,24.50,27.98,30.78,5.98,32.33,1003.68,2039.04,2050.09,2269.01,2438.14,349.61,318.35,29.66,0000 0000 0000 0000 000000
2013-11-21 01:51:31,0.13,4.53,0.00,24.42,27.98,30.78,5.99,32.17,1003.61,2039.03,2050.03,2268.96,2438.05,350.32,318.77,29.67,0000 0000 0000 0000 000000
2013-11-21 01:52:32,0.03,4.53,0.00,24.45,27.98,30.73,5.85,31.67,1003.56,2039.02,2049.81,2268.72,2438.01,350.09,318.33,29.67,0000 0000 0000 0000 000000
2013-11-21 01:53:32,0.16,4.53,0.00,24.48,27.98,30.70,5.91,31.88,1003.54,2039.03,2049.36,2268.29,2437.80,351.36,319.16,29.68,0000 0000 0000 0000 000000
2013-11-21 01:54:32,0.37,4.54,0.00,24.58,27.98,30.68,5.88,31.58,1003.51,2039.04,2049.13,2268.10,2437.34,350.89,318.90,29.68,0000 0000 0000 0000 000000
2013-11-21 01:55:32,0.25,4.54,0.00,24.70,27.98,30.66,5.95,31.92,1003.48,2039.05,2049.01,2268.03,2437.13,350.58,318.02,29.69,0000 0000 0000 0000 000000
2013-11-21 01:56:33,0.09,4.54,0.00,24.73,27.98,30.65,5.88,32.25,1003.45,2039.02,2048.75,2267.95,2437.04,349.53,317.64,29.69,0000 0000 0000 0000 000000
2013-11-21 01:57:33,0.09,4.54,0.00,24.67,27.98,30.62,5.88,31.79,1003.44,2039.01,2048.31,2267.59,2436.90,350.06,318.02,29.70,0000 0000 0000 0000 000000
2013-11-21 01:58:33,0.30,4.54,0.00,24.65,27.98,30.66,5.88,32.08,1003.44,2039.01,2048.11,2267.24,2436.50,350.26,318.23,29.71,0000 0000 0000 0000 000000
2013-11-21 01:59:33,0.29,4.54,0.00,24.67,27.98,30.68,6.07,32.54,1003.46,2039.00,2047.82,2267.08,2436.18,349.84,318.26,29.71,0000 0000 0000 0000 000000
2013-11-21 02:00:33,0.20,4.54,0.00,24.66,27.98,30.66,5.93,32.25,1003.45,2039.00,2047.38,2267.01,2436.06,349.86,317.86,29.72,0000 0000 0000 0000 000000
2013-11-21 02:01:33,0.18,4.54,0.00,24.65,27.98,30.69,5.92,32.38,1003.44,2039.01,2047.15,2266.91,2436.01,349.82,317.84,29.72,0000 0000 0000 0000 000000
2013-11-21 02:02:34,0.12,4.55,0.00,24.62,27.98,30.71,5.81,32.17,1003.43,2039.02,2047.05,2266.51,2435.71,349.68,317.73,29.73,0000 0000 0000 0000 000000
2013-11-21 02:03:34,0.26,4.55,0.00,24.57,27.98,30.74,5.99,32.46,1003.43,2039.02,2047.02,2266.21,2435.31,349.04,317.19,29.74,0000 0000 0000 0000 000000
2013-11-21 02:04:34,0.20,4.55,0.00,24.59,27.98,30.69,5.94,31.96,1003.43,2039.01,2046.86,2266.07,2435.11,350.71,318.70,29.74,0000 0000 0000 0000 000000
2013-11-21 02:05:34,0.11,4.55,0.00,24.63,27.98,30.69,5.87,31.88,1003.44,2039.01,2046.44,2266.03,2435.03,350.15,318.16,29.75,0000 0000 0000 0000 000000
2013-11-21 02:06:35,0.16,4.55,0.00,24.63,27.97,30.67,5.87,32.33,1003.43,2039.01,2046.17,2265.96,2434.96,349.45,317.61,29.75,0000 0000 0000 0000 000000
2013-11-21 02:07:35,0.13,4.55,0.00,24.61,27.98,30.65,5.83,31.83,1003.44,2039.01,2046.05,2265.57,2434.51,349.42,317.61,29.76,0000 0000 0000 0000 000000
2013-11-21 02:08:35,0.28,4.55,0.00,24.57,27.98,30.65,5.83,32.25,1003.43,2039.01,2045.93,2265.23,2434.19,349.71,317.81,29.77,0000 0000 0000 0000 000000
2013-11-21 02:09:35,0.21,4.55,0.00,24.60,27.98,30.68,5.93,32.17,1003.45,2039.01,2045.54,2265.08,2434.06,350.64,318.63,29.77,0000 0000 0000 0000 000000
2013-11-21 02:10:36,0.20,4.55,0.00,24.63,27.98,30.69,6.00,32.38,1003.44,2039.00,2045.22,2265.02,2434.01,349.98,317.64,29.78,0000 0000 0000 0000 000000
2013-11-21 02:11:36,0.11,4.56,0.00,24.62,27.98,30.69,5.89,32.42,1003.44,2039.00,2045.08,2264.96,2433.74,349.40,317.87,29.78,0000 0000 0000 0000 000000
2013-11-21 02:12:36,0.14,4.56,0.00,24.51,27.98,30.70,5.92,32.04,1003.45,2039.00,2045.02,2264.61,2433.32,350.36,317.90,29.79,0000 0000 0000 0000 000000
2013-11-21 02:13:36,0.25,4.56,0.00,24.52,27.98,30.70,6.02,32.29,1003.44,2039.01,2044.74,2264.24,2433.11,350.14,318.00,29.79,0000 0000 0000 0000 000000
2013-11-21 02:14:37,0.26,4.56,0.00,24.42,27.98,30.68,5.85,31.92,1003.44,2039.00,2044.29,2264.09,2433.03,349.76,318.11,29.80,0000 0000 0000 0000 000000
2013-11-21 02:15:37,0.18,4.56,0.00,24.45,27.98,30.75,5.88,31.88,1003.44,2039.02,2044.10,2264.03,2432.97,349.71,317.79,29.81,0000 0000 0000 0000 000000
2013-11-21 02:16:37,0.10,4.56,0.00,24.50,27.98,30.75,5.97,32.42,1003.44,2039.02,2043.98,2263.99,2432.61,350.22,318.62,29.81,0000 0000 0000 0000 000000
2013-11-21 02:17:37,0.12,4.56,0.00,24.44,27.98,30.78,5.90,32.13,1003.43,2039.02,2043.73,2263.72,2432.25,349.15,317.44,29.82,0000 0000 0000 0000 000000
2013-11-21 02:18:38,0.28,4.56,0.00,24.40,27.98,30.70,5.81,31.88,1003.43,2039.02,2043.29,2263.32,2432.09,350.08,318.34,29.82,0000 0000 0000 0000 000000
2013-11-21 02:19:38,0.30,4.57,0.00,24.47,27.98,30.66,5.86,31.92,1003.43,2039.00,2043.10,2263.12,2432.03,350.70,318.84,29.83,0000 0000 0000 0000 000000
2013-11-21 02:20:38,0.12,4.57,0.00,24.51,27.98,30.66,5.84,31.75,1003.43,2039.00,2043.03,2263.04,2431.91,349.46,318.13,29.84,0000 0000 0000 0000 000000
2013-11-21 02:21:38,0.07,4.57,0.00,24.49,27.98,30.68,6.05,32.50,1003.43,2039.00,2042.81,2262.99,2431.52,350.92,319.21,29.84,0000 0000 0000 0000 000000
2013-11-21 02:22:39,0.18,4.57,0.00,24.48,27.98,30.67,5.90,32.33,1003.43,2039.00,2042.34,2262.62,2431.22,349.63,317.84,29.85,0000 0000 0000 0000 000000
2013-11-21 02:23:39,0.36,4.57,0.00,24.53,27.97,30.74,5.96,32.13,1003.43,2039.00,2042.12,2262.23,2431.08,350.29,318.64,29.85,0000 0000 0000 0000 000000
2013-11-21 02:24:39,0.23,4.57,0.00,24.44,27.98,30.69,5.87,31.96,1003.43,2039.01,2041.99,2262.08,2431.02,350.53,318.70,29.86,0000 0000 0000 0000 000000
2013-11-21 02:25:40,0.12,4.57,0.00,24.44,27.98,30.72,5.91,31.83,1003.43,2039.00,2041.65,2262.03,2430.85,350.49,318.60,29.86,0000 0000 0000 0000 000000
2013-11-21 02:26:40,0.15,4.57,0.00,24.50,27.97,30.75,5.90,31.92,1003.43,2039.00,2041.28,2261.99,2430.50,350.40,318.88,29.87,0000 0000 0000 0000 000000
2013-11-21 02:27:40,0.21,4.57,0.00,24.44,27.98,30.71,5.88,32.04,1003.43,2039.00,2041.09,2261.71,2430.20,349.89,318.06,29.88,0000 0000 0000 0000 000000
2013-11-21 02:28:40,0.22,4.58,0.00,24.46,27.98,30.70,5.94,31.71,1003.43,2039.00,2040.93,2261.29,2430.07,350.16,318.34,29.88,0000 0000 0000 0000 000000
2013-11-21 02:29:41,0.24,4.58,0.00,24.50,27.98,30.73,5.81,31.92,1003.43,2039.00,2040.47,2261.10,2430.00,350.05,318.20,29.89,0000 0000 0000 0000 000000
2013-11-21 02:30:41,0.23,4.58,0.00,24.58,27.98,30.74,5.78,32.08,1003.43,2039.00,2040.18,2261.03,2429.63,350.05,318.11,29.89,0000 0000 0000 0000 000000
2013-11-21 02:31:41,0.19,4.58,0.00,24.57,27.97,30.69,6.00,32.33,1003.43,2039.00,2040.03,2260.97,2429.24,350.34,318.39,29.90,0000 0000 0000 0000 000000
2013-11-21 02:32:41,0.15,4.58,0.00,24.52,27.97,30.67,5.83,31.83,1003.43,2039.00,2039.89,2260.62,2429.08,348.83,317.36,29.91,0000 0000 0000 0000 000000
2013-11-21 02:33:42,0.21,4.58,0.00,24.47,27.98,30.72,5.77,32.00,1003.43,2039.00,2039.41,2260.25,2429.02,349.76,317.60,29.91,0000 0000 0000 0000 000000
2013-11-21 02:34:42,0.30,4.58,0.00,24.54,27.97,30.72,5.94,32.33,1003.43,2039.00,2039.15,2260.09,2428.90,350.70,318.76,29.92,0000 0000 0000 0000 000000
2013-11-21 02:35:42,0.16,4.58,0.00,24.48,27.98,30.71,5.96,32.13,1003.43,2039.00,2039.03,2260.03,2428.49,350.76,318.86,29.92,0000 0000 0000 0000 000000